Weather History for Goodland, KS

Change the Weather History Date:

Thursday, November 1, 2012

  Actual Average Record
Temperature  
Mean Temperature 59 °F 46 °F  
Max Temperature 78 °F 60 °F 79 °F (1915)
Min Temperature 40 °F 32 °F 4 °F (1951)
Degree Days  
Heating Degree Days 6 19  
Month to date heating degree days 6 19  
Since 1 July heating degree days 540 559  
Cooling Degree Days 0 0  
Month to date cooling degree days 0 0  
Year to date cooling degree days 1338 941  
Growing Degree Days 10 (Base 50)    
Moisture  
Dew Point 29 °F    
Average Humidity 38    
Maximum Humidity 60    
Minimum Humidity 15    
Precipitation  
Precipitation 0.00 in 0.03 in 0.90 in (1928)
Month to date precipitation 0.00 0.03  
Year to date precipitation 9.02 18.52  
Snow  
Snow 0.00 in 0.10 in - ()
Month to date snowfall 0.0 0.1  
Since 1 July snowfall 0.5 2.7  
Since 1 September snowfall 0.5 2.7  
Snow Depth 0.00 in    
Sea Level Pressure  
Sea Level Pressure 29.93 in    
Wind  
Wind Speed 11 mph (SSW)    
Max Wind Speed 21 mph    
Max Gust Speed 24 mph    
Visibility 10 miles    
Events      
T = Trace of Precipitation, MM = Missing Value Source: NWS Daily Summary

Daily Weather History Graph

Daily Weather History Graph

Search for Another Location

Airport:

Trip Planner

Search our weather history database for the weather conditions in past years. The results will help you decide how hot, cold, wet, or windy it might be!

Date:

Astronomy

Nov. 01, 2012 Rise Set
Actual Time 7:15 AM MDT 5:44 PM MDT
Civil Twilight 6:47 AM MDT 6:12 PM MDT
Nautical Twilight 6:15 AM MDT 6:44 PM MDT
Astronomical Twilight 5:44 AM MDT 7:15 PM MDT
Moon 7:44 PM MDT (11/1) 9:48 AM MDT (11/1)
Length of Visible Light 11h 25m
Length of Day
10h 29m
Waning Gibbous, 92% of the Moon is Illuminated
Nov 1
Waning Gibbous
Nov 6
Last Quarter
Nov 13
New
Nov 20
First Quarter
Nov 28
Full

Hourly Weather History & Observations

Time (MDT) Temp. Windchill Dew Point Humidity Pressure Visibility Wind Dir Wind Speed Gust Speed Precip Events Conditions
12:53 AM 44.1 °F 38.6 °F 28.0 °F 53% 30.04 in 10.0 mi WSW 10.4 mph - N/A   Clear
1:53 AM 41.0 °F 35.8 °F 28.0 °F 60% 30.04 in 10.0 mi WSW 8.1 mph - N/A   Clear
2:53 AM 42.1 °F 37.1 °F 28.9 °F 60% 30.02 in 10.0 mi WSW 8.1 mph - N/A   Clear
3:53 AM 42.1 °F 36.1 °F 28.9 °F 60% 30.01 in 10.0 mi WSW 10.4 mph - N/A   Clear
4:53 AM 41.0 °F 34.7 °F 28.0 °F 60% 30.01 in 10.0 mi WSW 10.4 mph - N/A   Clear
5:53 AM 42.1 °F 36.1 °F 28.9 °F 60% 30.03 in 10.0 mi WSW 10.4 mph - N/A   Clear
6:53 AM 44.1 °F 39.0 °F 28.9 °F 55% 30.04 in 10.0 mi WSW 9.2 mph - N/A   Clear
7:53 AM 48.0 °F - 30.0 °F 50% 30.05 in 10.0 mi WSW 8.1 mph - N/A   Clear
8:53 AM 59.0 °F - 30.9 °F 35% 30.03 in 10.0 mi SW 9.2 mph - N/A   Clear
9:53 AM 66.0 °F - 30.9 °F 27% 30.01 in 10.0 mi SSW 10.4 mph - N/A   Clear
10:53 AM 72.0 °F - 28.9 °F 20% 29.99 in 10.0 mi South 11.5 mph - N/A   Clear
11:53 AM 75.0 °F - 27.0 °F 17% 29.94 in 10.0 mi South 13.8 mph - N/A   Clear
12:53 PM 75.9 °F - 28.0 °F 17% 29.90 in 10.0 mi South 15.0 mph - N/A   Clear
1:53 PM 75.0 °F - 28.0 °F 18% 29.88 in 10.0 mi South 16.1 mph - N/A   Clear
2:53 PM 78.1 °F - 27.0 °F 15% 29.85 in 10.0 mi South 16.1 mph - N/A   Clear
3:53 PM 75.0 °F - 25.0 °F 16% 29.85 in 10.0 mi South 13.8 mph 24.2 mph N/A   Clear
4:53 PM 71.1 °F - 27.0 °F 19% 29.85 in 10.0 mi South 10.4 mph - N/A   Clear
5:53 PM 60.1 °F - 28.0 °F 30% 29.87 in 10.0 mi SSE 10.4 mph - N/A   Clear
6:53 PM 54.0 °F - 28.0 °F 37% 29.88 in 10.0 mi SSE 8.1 mph - N/A   Clear
7:53 PM 53.1 °F - 28.9 °F 40% 29.87 in 10.0 mi South 9.2 mph - N/A   Clear
8:53 PM 53.1 °F - 30.0 °F 41% 29.83 in 10.0 mi South 11.5 mph - N/A   Clear
9:53 PM 50.0 °F - 30.9 °F 48% 29.82 in 10.0 mi South 10.4 mph - N/A   Clear
10:53 PM 50.0 °F - 30.0 °F 46% 29.80 in 10.0 mi South 11.5 mph - N/A   Clear
11:53 PM 53.1 °F - 30.0 °F 41% 29.77 in 10.0 mi South 12.7 mph - N/A   Clear